Track STARLINK-3583 now! 10-day predictions STARLINK-3583 is classified as:
1 51876U 22022AA 22184.58334491 -.00051517 00000-0 -32397-2 0 9996 2 51876 53.2161 287.5258 0001689 42.2479 214.4639 15.08866525 20047